This is the latest recevied weather packets stored in our database for station/object 4S6DRJ-13. If no packets are shown the sender has not sent any weather packets the latest 10 day(s).
| Time | Temp. | Humidity | Pressure | Rain* | Wind** | Luminosity | Snow |
|---|---|---|---|---|---|---|---|
| 1788106620 | 28.33° C | 83% | 1010.7 hPa | 0 mm | 1.34 m/s, 214° | 0 W/m² | - |
| 1788106559 | 28.33° C | 83% | 1010.9 hPa | 0 mm | 1.79 m/s, 214° | 0 W/m² | - |
| 1788106498 | 28.33° C | 83% | 1010.8 hPa | 0 mm | 1.79 m/s, 245° | 0 W/m² | - |
| 1788106437 | 28.33° C | 83% | 1011 hPa | 0 mm | 2.24 m/s, 259° | 0 W/m² | - |
| 1788106376 | 28.33° C | 83% | 1011.1 hPa | 0 mm | 0.45 m/s, 221° | 0 W/m² | - |
| 1788106315 | 28.33° C | 83% | 1011 hPa | 0 mm | 0.89 m/s, 274° | 0 W/m² | - |
| 1788106254 | 28.33° C | 83% | 1010.9 hPa | 0 mm | 1.34 m/s, 244° | 0 W/m² | - |
| 1788106193 | 28.33° C | 83% | 1011.1 hPa | 0 mm | 0.89 m/s, 267° | 0 W/m² | - |
| 1788106132 | 28.33° C | 83% | 1011.2 hPa | 0 mm | 1.34 m/s, 213° | 0 W/m² | - |
| 1788106071 | 28.33° C | 82% | 1010.9 hPa | 0 mm | 1.34 m/s, 224° | 0 W/m² | - |
| 1788106009 | 28.33° C | 82% | 1010.8 hPa | 0 mm | 0.45 m/s, 252° | 0 W/m² | - |
| 1788105949 | 28.33° C | 82% | 1010.9 hPa | 0 mm | 2.24 m/s, 297° | 0 W/m² | - |
| 1788105888 | 28.33° C | 82% | 1010.9 hPa | 0 mm | 0.45 m/s, 235° | 0 W/m² | - |
| 1788105827 | 28.33° C | 82% | 1010.8 hPa | 0 mm | 0.45 m/s, 238° | 0 W/m² | - |
| 1788105766 | 28.33° C | 82% | 1010.9 hPa | 0 mm | 0.89 m/s, 215° | 0 W/m² | - |
| 1788105705 | 28.33° C | 82% | 1010.9 hPa | 0 mm | 1.34 m/s, 285° | 0 W/m² | - |
| 1788105644 | 28.33° C | 82% | 1010.9 hPa | 0 mm | 0 m/s | 0 W/m² | - |
| 1788105583 | 28.33° C | 82% | 1010.8 hPa | 0 mm | 0.45 m/s, 269° | 0 W/m² | - |
| 1788105522 | 28.33° C | 82% | 1010.9 hPa | 0 mm | 0.89 m/s, 237° | 0 W/m² | - |
| 1788105461 | 28.33° C | 82% | 1010.7 hPa | 0 mm | 0.89 m/s, 185° | 0 W/m² | - |
| 1788105400 | 28.33° C | 82% | 1010.8 hPa | 0 mm | 0.89 m/s, 187° | 0 W/m² | - |
| 1788105339 | 28.33° C | 82% | 1010.8 hPa | 0 mm | 0.45 m/s, 222° | 0 W/m² | - |
| 1788105278 | 28.33° C | 82% | 1010.8 hPa | 0 mm | 1.79 m/s, 233° | 0 W/m² | - |
| 1788105217 | 28.33° C | 82% | 1011 hPa | 0 mm | 0.89 m/s, 262° | 0 W/m² | - |
| 1788105156 | 28.33° C | 82% | 1010.8 hPa | 0 mm | 1.34 m/s, 206° | 0 W/m² | - |
* Rain latest hour (hover to see other rain measurements)
** Current wind speed in m/s (hover to see current wind gust speed)